Content
SEND FEEDBACK

Daily
Averages
Monthly
Summary
United States of America

UMATAC, GUAM


Home > North America > United States > Guam
Elevation: 190 feet     Latitude: 13 17N     Longitude: 144 40E

WEATHER
 
SELECT A DAY
Number of Records: 354,252;   Date Range: 1/1/95 - 11/21/14
 
SHARE

PRINT THIS DATA

[ ← Previous Day ]
WEATHER ALMANAC - OCTOBER 27, 2013
[ Next Day → ]
[ °C ]   °F
Weather ElementAverageHighLow
Temperature77 °F80.6 °F (10:45 am)69.8 °F (7:33 am)
Dewpoint75.2 °F78.8 °F (10:45 am)69.8 °F (7:33 am)
Humidity94.3 %100 % (1:02 am)78 % (1:53 pm)
Barometer29.81 in29.86 in (12:05 am)29.74 in (2:58 pm)
Wind Speed12.1 mph21.9 mph (4:20 pm)
Wind Gust32.2 mph (10:18 pm)
Weather ElementAverage
Visibility7.6 mi
Wind DirectionESE (105.4 °)

Weather ElementTotal
Precipitation1.27 in
Cooling Degree Days10.2 (Base 65)
Growing Degree Days25.2 (Base 50)
Averaged from 142 records on October 27, 2013
WEATHER CONDITIONS BREAKOUT
WIND DIRECTION BREAKOUT
WEATHER BY HOUR - OCTOBER 27, 2013
[ °C ]   °F
Local TimeTemperatureDewpointHumidityBarometerVisibilityWind DirectionWind SpeedGust SpeedPrecipitationEventsConditions
12:05 AM77.0 °F75.2 °F94 %29.86 in10.0 miNNW (340°)4.6 mphMostly Cloudy
12:35 AM75.2 °F73.4 °F94 %29.85 in10.0 miNorth (360°)1.2 mphMostly Cloudy
12:40 AM77.0 °F75.2 °F94 %29.85 in10.0 miCalmScattered Clouds
12:58 AM75.2 °F74.5 °F98 %29.81 in10.0 miVariable4.6 mph0.00 inScattered Clouds
1:02 AM75.2 °F75.2 °F100 %29.84 in6.0 miNorth (360°)9.2 mphRainLight Rain
1:16 AM77.0 °F75.2 °F94 %29.84 in10.0 miNNE (30°)9.2 mphScattered Clouds
1:51 AM77.0 °F75.2 °F94 %29.83 in10.0 miNE (50°)5.8 mphRainLight Rain
1:58 AM76.3 °F75.6 °F98 %29.79 in10.0 miENE (70°)4.6 mph0.05 inRainLight Rain
2:13 AM75.2 °F73.4 °F94 %29.82 in4.0 miENE (70°)12.7 mph19.6 mphRainLight Rain
2:18 AM75.2 °F73.4 °F94 %29.82 in6.0 miENE (70°)10.4 mph19.6 mphRainLight Rain
2:39 AM75.2 °F73.4 °F94 %29.81 in10.0 miNE (40°)8.1 mphPartly Cloudy
2:58 AM74.5 °F73.8 °F98 %29.81 in10.0 miNE (40°)6.9 mph0.05 inClear
3:48 AM75.2 °F73.4 °F94 %29.80 in10.0 miNNW (340°)9.2 mphMostly Cloudy
3:58 AM75.2 °F71.1 °F87 %29.77 in10.0 miNNW (340°)6.9 mph0.01 inMostly Cloudy
4:03 AM75.2 °F73.4 °F94 %29.79 in10.0 miNNW (330°)6.9 mphOvercast
4:05 AM75.2 °F73.4 °F94 %29.79 in9.0 miNNW (330°)6.9 mphRainLight Rain
4:10 AM75.2 °F73.4 °F94 %29.79 in8.0 miNorth (350°)9.2 mphRainLight Rain
4:15 AM75.2 °F73.4 °F94 %29.80 in10.0 miNorth (360°)4.6 mphRainLight Rain
4:19 AM75.2 °F73.4 °F94 %29.80 in10.0 miNorth (350°)5.8 mphOvercast
4:24 AM75.2 °F73.4 °F94 %29.80 in10.0 miNorth (360°)8.1 mphOvercast
4:25 AM75.2 °F73.4 °F94 %29.80 in10.0 miNorth (360°)8.1 mphLight Drizzle
4:30 AM75.2 °F73.4 °F94 %29.79 in5.0 miNNW (340°)6.9 mphRainRain
4:40 AM75.2 °F73.4 °F94 %29.79 in6.0 miNorth (350°)6.9 mphRainLight Rain
4:45 AM75.2 °F73.4 °F94 %29.79 in8.0 miNNW (340°)6.9 mphRainLight Rain
4:55 AM75.2 °F75.2 °F100 %29.79 in10.0 miNorth (10°)4.6 mphRainLight Rain
4:58 AM75.4 °F75.4 °F100 %29.76 in10.0 miNorth (360°)5.8 mph0.04 inLight Drizzle
5:03 AM75.2 °F75.2 °F100 %29.80 in10.0 miNE (50°)16.1 mph23.0 mphLight Drizzle
5:13 AM75.2 °F73.4 °F94 %29.81 in5.0 miENE (60°)15.0 mph23.0 mphRainLight Rain
5:18 AM75.2 °F73.4 °F94 %29.81 in3.0 miNE (50°)11.5 mphRainHeavy Rain
5:26 AM75.2 °F73.4 °F94 %29.81 in10.0 miNE (40°)9.2 mphMostly Cloudy
5:46 AM77.0 °F75.2 °F94 %29.82 in10.0 miNE (40°)11.5 mphMostly Cloudy
5:58 AM76.5 °F75.4 °F96 %29.79 in10.0 miNE (50°)11.5 mph0.08 inMostly Cloudy
6:13 AM75.2 °F73.4 °F94 %29.82 in10.0 miNE (50°)12.7 mphScattered Clouds
6:18 AM75.2 °F73.4 °F94 %29.83 in6.0 miENE (60°)10.4 mphRainLight Rain
6:23 AM75.2 °F75.2 °F100 %29.83 in1.5 miENE (60°)9.2 mphRainHeavy Rain
6:28 AM73.4 °F73.4 °F100 %29.83 in1.2 miENE (70°)10.4 mphRainHeavy Rain
6:38 AM75.2 °F75.2 °F100 %29.83 in1.8 miENE (60°)12.7 mphRainLight Rain
6:43 AM73.4 °F73.4 °F100 %29.83 in6.0 miENE (70°)11.5 mphRainLight Rain
6:48 AM73.4 °F73.4 °F100 %29.84 in2.5 miENE (60°)13.8 mphRainHeavy Rain
6:53 AM73.4 °F71.6 °F94 %29.84 in1.8 miENE (70°)6.9 mphRainHeavy Rain
6:58 AM73.4 °F71.6 °F94 %29.81 in2.0 miEast (80°)5.8 mph0.32 inRainLight Rain
7:03 AM75.2 °F73.4 °F94 %29.84 in5.0 miNE (50°)11.5 mphRainLight Rain
7:08 AM75.2 °F73.4 °F94 %29.83 in10.0 miNE (40°)8.1 mphRainLight Rain
7:18 AM75.2 °F73.4 °F94 %29.84 in1.8 miENE (60°)5.8 mphRainHeavy Rain
7:23 AM75.2 °F73.4 °F94 %29.85 in1.8 miENE (60°)8.1 mphRainRain
7:28 AM71.6 °F71.6 °F100 %29.85 in3.0 miEast (90°)8.1 mphRainRain
7:33 AM69.8 °F69.8 °F100 %29.85 in4.0 miEast (90°)11.5 mphRainLight Rain
7:43 AM69.8 °F69.8 °F100 %29.85 in8.0 miEast (80°)5.8 mphRainLight Rain
7:48 AM71.6 °F71.6 °F100 %29.85 in10.0 miENE (70°)4.6 mphRainLight Rain
7:49 AM75.2 °F71.6 °F89 %29.85 in10.0 miENE (70°)5.8 mphScattered Clouds
7:52 AM75.2 °F73.4 °F94 %29.85 in10.0 miENE (70°)5.8 mphLight Drizzle
7:58 AM72.9 °F72.5 °F99 %29.83 in10.0 miENE (60°)8.1 mph0.12 inRainLight Rain
8:11 AM75.2 °F71.6 °F89 %29.86 in10.0 miENE (70°)6.9 mphPartly Cloudy
8:58 AM79.0 °F76.8 °F93 %29.83 in10.0 miENE (70°)10.4 mph0.00 inPartly Cloudy
9:58 AM80.1 °F76.5 °F89 %29.83 in10.0 miENE (70°)11.5 mphScattered Clouds
10:45 AM80.6 °F78.8 °F94 %29.85 in7.0 miENE (70°)16.1 mphRainLight Rain
10:50 AM78.8 °F77.0 °F94 %29.85 in4.0 miENE (70°)20.7 mph26.5 mphRainLight Rain
10:58 AM77.0 °F75.2 °F94 %29.82 in2.5 miEast (80°)9.2 mph26.5 mph0.03 inRainLight Rain
11:03 AM77.0 °F75.2 °F94 %29.84 in2.5 miEast (80°)8.1 mphRainRain
11:08 AM77.0 °F75.2 °F94 %29.84 in5.0 miEast (80°)5.8 mphRainLight Rain
11:10 AM78.8 °F75.2 °F89 %29.84 in10.0 miEast (80°)6.9 mphMostly Cloudy
11:30 AM78.8 °F77.0 °F94 %29.84 in10.0 miEast (80°)16.1 mph21.9 mphMostly Cloudy
11:35 AM80.6 °F77.0 °F89 %29.84 in10.0 miEast (80°)13.8 mph21.9 mphMostly Cloudy
11:50 AM80.6 °F77.0 °F89 %29.83 in10.0 miEast (80°)15.0 mph19.6 mphMostly Cloudy
11:58 AM80.6 °F77.2 °F89 %29.81 in10.0 miEast (80°)11.5 mph0.03 inMostly Cloudy
12:00 PM80.6 °F77.0 °F89 %29.82 in9.0 miEast (80°)15.0 mphRainLight Rain
12:11 PM80.6 °F77.0 °F89 %29.81 in10.0 miEast (80°)17.3 mph21.9 mphMostly Cloudy
12:16 PM80.6 °F77.0 °F89 %29.81 in10.0 miENE (70°)13.8 mph21.9 mphScattered Clouds
12:21 PM80.6 °F77.0 °F89 %29.81 in8.0 miENE (70°)17.3 mphRainLight Rain
12:31 PM78.8 °F77.0 °F94 %29.80 in8.0 miEast (80°)13.8 mphRainLight Rain
12:32 PM78.8 °F77.0 °F94 %29.80 in9.0 miEast (80°)15.0 mphScattered Clouds
12:42 PM80.6 °F77.0 °F89 %29.80 in10.0 miENE (70°)16.1 mphMostly Cloudy
12:52 PM78.8 °F75.2 °F89 %29.80 in8.0 miEast (80°)16.1 mphRainLight Rain
12:58 PM78.8 °F76.3 °F92 %29.77 in4.0 miEast (100°)13.8 mph0.01 inRainLight Rain
1:03 PM78.8 °F77.0 °F94 %29.79 in2.0 miEast (90°)10.4 mphRainRain
1:08 PM78.8 °F75.2 °F89 %29.79 in3.0 miEast (90°)6.9 mphRainLight Rain
1:18 PM78.8 °F77.0 °F94 %29.80 in2.0 miEast (100°)19.6 mph25.3 mphRainLight Rain
1:23 PM77.0 °F75.2 °F94 %29.79 in0.8 miEast (80°)15.0 mph25.3 mphRainHeavy Rain
1:28 PM77.0 °F75.2 °F94 %29.79 in1.0 miEast (90°)11.5 mphRainLight Rain
1:33 PM77.0 °F75.2 °F94 %29.79 in5.0 miEast (90°)9.2 mphRainLight Rain
1:38 PM77.0 °F75.2 °F94 %29.78 in9.0 miEast (80°)10.4 mphRainLight Rain
1:53 PM77.0 °F69.8 °F78 %29.78 in1.0 miEast (90°)18.4 mph27.6 mphRainHeavy Rain
1:58 PM77.0 °F69.8 °F78 %29.75 in1.0 miEast (90°)19.6 mph27.6 mph0.35 inRainLight Rain
2:03 PM77.0 °F69.8 °F78 %29.78 in2.5 miEast (80°)16.1 mph27.6 mphRainLight Rain
2:08 PM77.0 °F69.8 °F78 %29.77 in10.0 miEast (80°)17.3 mph21.9 mphRainLight Rain
2:09 PM77.0 °F69.8 °F78 %29.77 in10.0 miENE (70°)15.0 mph21.9 mphMostly Cloudy
2:19 PM69.8 °F69.8 °F100 %29.77 in10.0 miENE (70°)10.4 mphScattered Clouds
2:44 PM77.0 °F73.4 °F89 %29.76 in10.0 miEast (80°)15.0 mphMostly Cloudy
2:49 PM77.0 °F73.4 °F89 %29.76 in10.0 miEast (90°)12.7 mphMostly Cloudy
2:54 PM77.0 °F73.4 °F89 %29.76 in10.0 miEast (80°)15.0 mphMostly Cloudy
2:58 PM77.0 °F73.4 °F89 %29.74 in10.0 miEast (90°)12.7 mph0.00 inMostly Cloudy
3:23 PM78.8 °F73.4 °F83 %29.77 in10.0 miEast (90°)13.8 mphMostly Cloudy
3:28 PM78.8 °F73.4 °F83 %29.77 in10.0 miEast (80°)11.5 mphMostly Cloudy
3:34 PM78.8 °F73.4 °F83 %29.77 in10.0 miEast (80°)15.0 mphRainLight Rain
3:49 PM78.8 °F77.0 °F94 %29.77 in10.0 miEast (80°)17.3 mph26.5 mphRainLight Rain
3:58 PM78.8 °F77.0 °F94 %29.74 in10.0 miEast (90°)13.8 mph0.01 inRainLight Rain
4:02 PM78.8 °F77.0 °F94 %29.77 in10.0 miENE (70°)16.1 mphScattered Clouds
4:20 PM77.0 °F77.0 °F100 %29.78 in3.0 miEast (80°)21.9 mph25.3 mphRainRain
4:25 PM77.0 °F77.0 °F100 %29.78 in1.8 miEast (80°)18.4 mph28.8 mphRainLight Rain
4:35 PM77.0 °F77.0 °F100 %29.79 in2.5 miENE (70°)16.1 mph28.8 mphRainLight Rain
4:36 PM77.0 °F77.0 °F100 %29.79 in3.0 miENE (70°)15.0 mph28.8 mphMostly Cloudy
4:41 PM77.0 °F77.0 °F100 %29.79 in9.0 miENE (70°)12.7 mphMostly Cloudy
4:58 PM76.6 °F75.7 °F97 %29.76 in10.0 miENE (70°)10.4 mph0.04 inMostly Cloudy
5:03 PM78.8 °F77.0 °F94 %29.79 in10.0 miEast (80°)11.5 mphScattered Clouds
5:08 PM78.8 °F77.0 °F94 %29.78 in10.0 miEast (80°)15.0 mph20.7 mphScattered Clouds
5:33 PM80.6 °F77.0 °F89 %29.79 in10.0 miEast (80°)12.7 mph20.7 mphMostly Cloudy
5:38 PM80.6 °F77.0 °F89 %29.79 in10.0 miEast (80°)17.3 mph21.9 mphMostly Cloudy
5:58 PM78.8 °F75.6 °F90 %29.77 in10.0 miEast (80°)12.7 mphMostly Cloudy
6:04 PM78.8 °F77.0 °F94 %29.80 in6.0 miENE (70°)21.9 mph26.5 mphRainLight Rain
6:09 PM78.8 °F77.0 °F94 %29.80 in3.0 miEast (80°)12.7 mph26.5 mphRainHeavy Rain
6:14 PM77.0 °F77.0 °F100 %29.80 in4.0 miEast (80°)12.7 mph26.5 mphRainLight Rain
6:16 PM77.0 °F75.2 °F94 %29.80 in7.0 miEast (80°)15.0 mphMostly Cloudy
6:21 PM77.0 °F77.0 °F100 %29.80 in10.0 miEast (80°)13.8 mphScattered Clouds
6:31 PM77.0 °F77.0 °F100 %29.80 in10.0 miEast (80°)12.7 mphMostly Cloudy
6:41 PM77.0 °F77.0 °F100 %29.80 in10.0 miEast (80°)13.8 mphScattered Clouds
6:50 PM78.8 °F78.8 °F100 %29.80 in10.0 miENE (70°)12.7 mph19.6 mphRainLight Rain
6:55 PM78.8 °F78.8 °F100 %29.81 in7.0 miEast (80°)15.0 mphRainLight Rain
6:58 PM78.1 °F76.6 °F95 %29.78 in4.0 miEast (90°)16.1 mph0.04 inRainRain
7:03 PM78.8 °F77.0 °F94 %29.81 in3.0 miEast (80°)12.7 mphRainLight Rain
7:08 PM78.8 °F78.8 °F100 %29.81 in6.0 miEast (80°)13.8 mphRainLight Rain
7:09 PM78.8 °F78.8 °F100 %29.81 in9.0 miEast (80°)13.8 mphMostly Cloudy
7:34 PM78.8 °F78.8 °F100 %29.82 in9.0 miEast (90°)12.7 mph20.7 mphMostly Cloudy
7:43 PM78.8 °F78.8 °F100 %29.82 in9.0 miEast (100°)9.2 mphLight Drizzle
7:48 PM78.8 °F78.8 °F100 %29.83 in9.0 miEast (80°)10.4 mphLight Drizzle
7:52 PM78.8 °F78.8 °F100 %29.83 in10.0 miEast (80°)17.3 mph19.6 mphMostly Cloudy
7:58 PM77.0 °F75.9 °F96 %29.81 in10.0 miENE (70°)17.3 mph0.03 inMostly Cloudy
8:13 PM78.8 °F78.8 °F100 %29.83 in10.0 miEast (80°)15.0 mphMostly Cloudy
8:28 PM78.8 °F78.8 °F100 %29.83 in10.0 miEast (90°)15.0 mphMostly Cloudy
8:33 PM78.8 °F78.8 °F100 %29.83 in10.0 miEast (80°)13.8 mphOvercast
8:43 PM78.8 °F78.8 °F100 %29.83 in10.0 miEast (80°)17.3 mph20.7 mphMostly Cloudy
8:58 PM78.8 °F78.8 °F100 %29.81 in10.0 miEast (90°)13.8 mph25.3 mphMostly Cloudy
9:03 PM78.8 °F78.8 °F100 %29.83 in10.0 miEast (100°)18.4 mph24.2 mphScattered Clouds
9:43 PM80.6 °F78.8 °F94 %29.84 in10.0 miEast (90°)16.1 mph21.9 mphMostly Cloudy
9:58 PM80.6 °F78.8 °F94 %29.81 in10.0 miEast (100°)15.0 mph23.0 mphMostly Cloudy
10:03 PM80.6 °F78.8 °F94 %29.84 in10.0 miEast (90°)13.8 mph23.0 mphMostly Cloudy
10:18 PM80.6 °F78.8 °F94 %29.84 in2.5 miEast (100°)18.4 mph32.2 mphMostly Cloudy
10:23 PM77.0 °F77.0 °F100 %29.84 in2.5 miEast (90°)18.4 mph29.9 mphMostly Cloudy
10:29 PM77.0 °F77.0 °F100 %29.84 in7.0 miEast (100°)15.0 mph21.9 mphLight Drizzle
10:39 PM77.0 °F77.0 °F100 %29.84 in9.0 miEast (100°)16.1 mph21.9 mphRainLight Rain
10:49 PM77.0 °F77.0 °F100 %29.83 in10.0 miEast (100°)15.0 mph21.9 mphPartly Cloudy
10:58 PM77.0 °F77.0 °F100 %29.81 in10.0 miEast (100°)18.4 mph24.2 mph0.06 inPartly Cloudy
11:58 PM75.7 °F73.4 °F92 %29.79 in10.0 miEast (100°)17.3 mph26.5 mphScattered Clouds
Hourly data recorded from PGUA, located miles away from Umatac, Guam







STORIES FROM OUR PARTNERS